Вернуться в каталог

YANTAI-2

АктивенНаукаSSO
NORAD 58918·PAYLOAD·🇨🇳 China
Это название спутника еще не подтверждено официальными источниками.

Запущен Feb 3, 2024 с South China Sea Launch Area

Loading…

Ближайшие Пролёты (ближайшие 24 часа)

TLE

СвежийSource: Space-Track

Эпоха: Sep 14, 2026, 23:13 UTC

1 58918U 24024B   26257.96785811  .00006058  00000-0  27322-3 0  9998
2 58918  97.2976 321.5763 0016016 190.1020 169.9897 15.21263235144993

Отслеживайте YANTAI-2 в реальном времени с AllMySat

Download on the App Store